Location: Agadir Irigdalene
(31.2522°N, 8.7797°W)
Time: 05:10:30
(UTC+00:00)

H-2A R/B (2) - Pass Details

Date: 01 December 2020
Orbit: 457 x 34385 km, 28.4° (Epoch: 25 January)

Event Time Altitude Azimuth Distance (km) Brightness Sun altitude
Rises 19:41:57 0° 283° (WNW) 14,469 9.5 -27.2°
Reaches altitude 10° 20:00:27 10° 280° (W) 8,291 8.1 -31.1°
Maximum altitude 20:17:00 41° 216° (SW) 1,694 3.9 -34.6°
Enters shadow 20:17:56 39° 193° (SSW) 1,560 3.6 -34.8°
